www.pogodaiklimat.ru

Погода и климат >> Архив погоды >> Грузия >> Зугдиди


ПОГОДА в Зугдиди

АРХИВ ПОГОДЫ в Зугдиди

Время (UTC), дата Ветер
(напр.,м/с)
 
Видим.   Явления Облачность Т
(С)
Тd
(С)
f
(%)
Тe
(С)
Тes
(С)
Комфортность P
(гПа)
Po
(гПа)
Тmin
(С)
Tmax
(С)
R
(мм)
R24
(мм)
S
(см)
06 9.01 В 7 н/о н/о +4.2 +4.2 100 -2 -2 прохладно 1016.1 996.0 +4.1 75
09 9.01 С 6 н/о н/о +2.6 +1.9 95 -3 -3 очень
холодно
1019.2 998.9 24
12 9.01 С 2 н/о н/о +2.7 +2.3 97 -1 -1 очень
холодно
1022.5 1002.1 46
15 9.01 штиль 0 н/о н/о +2.8 +2.8 100 +1 +1 прохладно 1025.8 1005.4 +11.4
18 9.01 штиль 0 н/о н/о +0.7 +0.8 100 -1 -1 прохладно 1027.9 1007.3 +4.3 90
21 9.01 СВ 2 н/о н/о +1.1 +1.2 100 -3 -3 прохладно 1029.2 1008.6 29
00 10.01 штиль 0 н/о н/о -0.2 -0.2 100 -2 -2 прохладно 1030.9 1010.1 88
03 10.01 штиль 0 н/о н/о -1.2 -1.4 99 -3 -3 прохладно 1030.2 1009.4
06 10.01 В 4 н/о н/о +3.2 -2.1 68 -1 -1 прохладно 1030.3 1009.9 -1.5 223
09 10.01 ЮВ 5 н/о н/о +8.5 -3.6 42 +6 +6 по сезону 1029.0 1008.9 61
12 10.01 ЮВ 7 н/о н/о +9.9 -2.2 43 +7 +7 по сезону 1027.4 1007.5 176
15 10.01 В 1 н/о н/о +4.2 -0.8 70 +3 +3 по сезону 1027.5 1007.2 +10.4
18 10.01 СВ 2 н/о н/о +4.0 -3.0 60 +2 +2 по сезону 1027.7 1007.4 +10.4 336
21 10.01 В 3 н/о н/о +4.8 -4.2 52 +2 +2 по сезону 1027.8 1007.5 31
00 11.01 В 2 н/о н/о +1.0 -2.2 79 -2 -2 прохладно 1028.5 1007.9 64
03 11.01 ЮВ 2 н/о н/о +4.8 -3.8 54 +3 +3 по сезону 1027.1 1006.8
06 11.01 ЮВ 2 н/о н/о +6.5 -2.0 55 +5 +5 по сезону 1027.5 1007.3 +0.7 134
09 11.01 ЮВ 3 н/о н/о +13.3 -1.9 35 +12 +12 тепло 1026.1 1006.5 52
12 11.01 ЮВ 4 н/о н/о +14.3 -3.3 29 +13 +13 тепло 1025.0 1005.4 157
15 11.01 СВ 1 н/о н/о +9.4 -1.6 46 +9 +9 тепло 1024.6 1004.7 +15.5
18 11.01 СВ 2 н/о н/о +6.2 -0.7 61 +4 +4 по сезону 1024.5 1004.3 +15.5 223
21 11.01 СВ 3 н/о н/о +6.9 -0.7 58 +4 +4 по сезону 1022.7 1002.6 37
00 12.01 В 2 н/о н/о +4.4 +0.4 75 +2 +2 по сезону 1021.6 1001.4 81
03 12.01 штиль 0 н/о н/о +2.5 +0.4 86 +1 +1 по сезону 1020.9 1000.5
06 12.01 С 2 н/о н/о +4.1 +0.4 77 +1 +1 по сезону 1022.6 1002.3 +1.2 118
09 12.01 ЮЗ 3 н/о н/о +11.7 +1.6 50 +10 +10 тепло 1021.3 1001.6 50
12 12.01 СЗ 4 н/о н/о +11.3 +2.8 56 +9 +9 по сезону 1019.4 999.7 181
15 12.01 В 1 н/о н/о +9.0 +2.5 64 +9 +9 тепло 1018.1 998.3 +14.0
18 12.01 С 2 н/о н/о +9.2 +2.1 61 +8 +8 тепло 1017.4 997.6 +14.0 214
21 12.01 С 1 н/о н/о +8.2 +2.0 65 +8 +8 тепло 1015.2 995.4 37
00 13.01 СВ 7 н/о н/о +10.7 +1.1 51 +8 +8 тепло 1013.5 993.9 70
03 13.01 СВ 2 н/о н/о +7.3 +2.2 70 +5 +5 по сезону 1013.4 993.5
06 13.01 В 2 н/о н/о +8.9 +1.5 60 +7 +7 тепло 1014.8 995.0 +6.8 117
09 13.01 ЮВ 4 н/о н/о +12.0 -1.9 38 +10 +10 тепло 1014.8 995.2 38
12 13.01 ЮЗ 1 н/о н/о +11.7 +0.7 47 +12 +12 тепло 1014.7 995.1 65
15 13.01 С 4 н/о н/о +9.3 +0.7 55 +7 +7 по сезону 1013.9 994.1 +12.2
18 13.01 штиль 0 н/о н/о +4.9 +1.8 80 +4 +4 по сезону 1013.5 993.4 +12.2 103
21 13.01 штиль 0 н/о н/о +5.2 +2.5 83 +4 +4 по сезону 1013.8 993.8 12
00 14.01 В 1 н/о н/о +5.0 +2.7 85 +4 +4 по сезону 1013.6 993.6 27
03 14.01 ЮВ 3 н/о н/о +5.1 +0.4 72 +2 +2 по сезону 1012.5 992.5
06 14.01 СВ 1 н/о н/о +9.0 +0.3 54 +9 +9 тепло 1012.6 992.9 +3.1 64
09 14.01 В 4 н/о н/о +12.9 -2.8 33 +12 +12 тепло 1011.8 992.3 60
12 14.01 ЮВ 4 н/о н/о +13.7 -1.4 35 +13 +13 тепло 1011.1 991.7 216
15 14.01 С 1 н/о н/о +9.8 +0.2 51 +10 +10 тепло 1012.1 992.4 +14.6
18 14.01 СВ 1 н/о н/о +6.9 +0.7 65 +6 +6 тепло 1013.0 993.1 +14.6 270
21 14.01 В 3 н/о н/о +10.1 -2.5 41 +9 +9 тепло 1012.6 993.0 44
00 15.01 В 5 н/о н/о +11.1 -3.0 37 +9 +9 тепло 1012.3 992.8 69
03 15.01 ЮЗ 2 н/о н/о +8.1 -0.2 56 +7 +7 тепло 1013.9 994.1
06 15.01 СВ 7 н/о н/о +8.7 +2.9 67 +5 +5 по сезону 1016.4 996.6 +6.1 136
09 15.01 В 6 н/о н/о +14.1 +1.2 41 +12 +12 тепло 1013.8 994.4 68
12 15.01 В 7 н/о н/о +14.2 -0.4 37 +12 +12 тепло 1011.6 992.3 156
15 15.01 В 8 н/о н/о +13.4 -0.2 39 +11 +11 тепло 1010.9 991.5 +15.2
18 15.01 СВ 6 н/о н/о +12.8 +0.8 44 +11 +11 тепло 1008.5 989.1 +15.2 199
21 15.01 В 7 н/о н/о +13.3 +1.4 44 +11 +11 тепло 1006.9 987.6 15
00 16.01 В 8 н/о н/о +14.3 +0.7 39 +12 +12 тепло 1006.2 987.0 42

 

Местоположение метеостанции Зугдиди (Грузия): широта 42.50 долгота 41.88 высота над уровнем моря 117 м.

В архиве по умолчанию представлена погода в Зугдиди за последнюю неделю. Архивные данные за месяц целиком и за предыдущие месяцы, начиная с января 2011 года, Вы можете получить, выбрав интересующий диапазон дат из раскрывающегося списка и нажав кнопку "Ввод!".


*Определитесь, кто Вы:
робот инопланетянин человек

Внимание! Время в таблицах - всемирное. Для получения местного времени необходимо прибавить поправку, которая равна 4 ч.

Смотрите также архив погоды в соседних городах и на ближайших метеорологических станциях:

Погода в Кутаиси (Грузия) (67 км)
Погода на Клухорском Перевале (Карачаево-Черкессия, Россия) (68 км)
Погода в Чегете (Кабардино-Балкария, Россия) (96 км)
Погода в Терсколе (Кабардино-Балкария, Россия) (98 км)
Погода на Леднике Гарабаши (Карачаево-Черкессия, Россия) (99 км)
Погода в Домбае (Карачаево-Черкессия, Россия) (99 км)
Погода в Батуми (Грузия) (101 км)
Погода в Сакаре (Грузия) (103 км)
Погода в Амролаури (Грузия) (104 км)
Погода в Теберде (Карачаево-Черкессия, Россия) (106 км)

Пояснения к столбцам:

Ветер - указаны скорость ветра в м/с - средняя за 10 мин, порывы в срок и между сроками (в фигурных скобках) и направление, откуда дует ветер: С - северный, СВ - северо-восточный, В - восточный, ЮВ - юго-восточный, Ю - южный, ЮЗ - юго-западный, З - западный, СЗ - северо-западный.
Видимость - горизонтальная дальность видимости в метрах или километрах. При видимости от 1 до 10 км при отсутствии осадков обычно наблюдается дымка, при ухудшении видимости до 1 км и менее - туман. В сухую погоду видимость может ухудшаться дымом, пылью или мглою.
Явления - указаны атмосферные явления, наблюдавшиеся в срок или в последний час перед сроком; фигурными скобками обозначены явления, наблюдавшиеся между сроками (за 1-3 часа до срока); квадратными скобками обозначены град или гололедные отложения с указанием их диаметра в мм.
Облачность - указаны через наклонную черту общая и нижняя облачность в баллах и высота нижней границы облаков в метрах; квадратными скобками обозначены формы облаков: Ci - перистые, Cs - перисто-слоистые, Cc - перисто-кучевые, Ac - высококучевые, As - высокослоистые, Sc - слоисто-кучевые, Ns - слоисто-дождевые, Cu - кучевые, Cb - кучево-дождевые. Подробнее классификацию облаков см. в Атласе облаков (PDF).
T - Температура воздуха - температура, измеренная на высоте 2 м над землей.
Td - Температура точки росы - температура, при понижении до которой содержащийся в воздухе водяной пар достигнет насыщения.
f - Относительная влажность воздуха - влажноcть воздуха, измеренная на высоте 2 м над землей.
Te - Эффективная температура - температура, которую ощущает одетый по сезону человек в тени. Характеристика душности погоды. При расчете учитывается влияние влажности воздуха и скорости ветра на теплоощущения человека.
Tes - Эффективная температура на солнце - температура, которую ощущает человек, с поправкой на солнечный нагрев. Характеристика знойности погоды. Зависит от высоты солнца над горизонтом, облачности и скорости ветра. Ночью, в пасмурную погоду, а также при ветре 12 м/с и более поправка равна нулю.
P - Атмосферное давление - приведенное к уровню моря атмосферное давление.
Po - Атмосферное давление - измеренное на уровне метеостанции атмосферное давление.
Tmin - Минимальная температура - минимум температуры воздуха на высоте 2 м над землей.
Tmax - Максимальная температура - максимум температуры воздуха на высоте 2 м над землей.
R - Количество осадков - Количество выпавших осадков за период времени, мм. При наведении курсора мыши на число - период времени, за который выпало указанное количество осадков.
R24 - Количество осадков - Количество выпавших осадков за 24 часа, мм.
S - Снежный покров - Высота снежного покрова, см. При наведении курсора мыши на число - состояние снежного покрова и степень покрытия местности в баллах.